Warsaw Chopin Airport Warsaw PL
ICAO: EPWA
IATA: WAW
Category: Large
Scheduled Services: Yes

Elevation: 362 ft
TransAlt. 6500 ft.

Airport Communications:
WARSZAWA APP:128.8
ATIS:120.45
CLNC DEL:121.6
WARSZAWA DIR:129.375
GND:121.9
TWR:118.3

EPWA Zoom In..

Runways:

(A) RW 11 length 9186 ft width 164 ft
ILS 109.90 / hdg 110

(B) RW 15 length 12106 ft width 197 ft
---- / hdg 147

(C) RW 29 length 9186 ft width 164 ft
---- / hdg 290

(D) RW 33 length 12106 ft width 197 ft
ILS 110.30 / hdg 327

Location; EPWA
Day. 05 / Time. 15.30 Zulu
* QNH: 1010
* Temperature: 28° c. 82.4°f.
* Wind from: 220° Speed 08 kn.
Dewpoint: 17° c.
Visibility: 10 km or more,
No clouds below 1,500 m.
No cumulonimbus, and no significant weather
fenomena in the aerodrome or its vicinity.
No significant changes expected in the near future.

EPWA 051530Z 22008KT 190V250 CAVOK 28/17 Q1010 NOSIG

Going to: --> -->


Wind From 220°
Speed 08 kn.

 
 
jpsmedia worldairports.se 2020   terms of use